Volver al catálogo

STARLINK-32499

ActivoComunicacionesVLEO
NORAD 61959·PAYLOAD·🇺🇸 United States

Lanzado Nov 14, 2024 desde Cape Canaveral Space Force Station

Loading…

Próximos Pases (próximas 24 horas)

TLE

ActualizadoSource: CelesTrak SupGP

Época: Sep 14, 2026, 22:28 UTC

1 61959C 24210A   26257.93659722 -.00031187  00000+0 -11294-2 0  2571
2 61959  42.9993 190.6587 0001076 264.3827 233.1286 15.27598736    19

Sigue STARLINK-32499 en tiempo real con AllMySat

Download on the App Store